Location: Clamensane
(44.3229°N, 6.0693°E)
Time: 11:55:54
(UTC+00:00)

Daily predictions for brighter satellites

Satellite Brightness Start Highest point End
(mag) Time Altitude Azimuth Time Altitude Azimuth Time Altitude Azimuth
USA 238 DEB 4.1 18:41:28 10° NW 18:48:58 84° NE 18:57:06 10° SE
USA 238 4.1 18:41:39 10° NW 18:49:09 83° NE 18:57:17 10° SE
Timation 2 Rocket 4.1 18:46:10 10° NNW 18:52:36 85° ENE 18:59:16 10° SSE
Cosmos 1125 Rocket 3.7 18:49:16 10° S 18:54:19 52° ESE 18:59:25 10° NNE
NOSS 2-1 (D) 3.9 18:52:10 10° NNW 18:55:23 39° NE 18:59:28 10° ESE
COBE Rocket 4.2 18:53:06 10° N 18:58:12 81° WNW 19:03:19 10° SSW
ERS-1 Rocket 3.9 18:55:25 10° SE 18:59:43 30° ENE 19:04:03 10° N
COSMOS 2428 4.3 18:54:38 10° SW 19:00:03 42° WNW 19:05:30 10° NNE
Cosmos 2341 Rocket 4.0 18:55:30 10° S 19:01:44 78° E 19:08:05 10° N
BREEZE-M DEB (TANK) 3.6 19:00:48 10° WNW 19:02:50 25° N 19:05:04 10° ENE
CSL-04 Debris 4.3 18:57:48 10° SSE 19:03:02 56° ENE 19:08:19 10° N
In-Cosmos 22 Rocket 4.4 18:58:13 10° NNW 19:03:32 72° W 19:08:49 10° S
NOSS 2-1 (E) 4.0 19:00:24 10° NNW 19:03:34 35° NE 19:07:30 10° ESE
NOSS 8 (A) 4.3 19:03:12 10° NNW 19:06:04 56° NE 19:09:17 10° SE
Cosmos 2366 rocket 4.0 19:00:13 10° S 19:06:21 79° E 19:12:29 10° N
Cosmos 44 3.9 19:04:39 10° S 19:09:13 37° ESE 19:14:01 10° NE
NOSS 2-1 (C) 3.7 19:06:17 10° NNW 19:09:34 45° NE 19:13:45 10° SE
Okean-O 4.5 19:07:44 10° E 19:10:12 15° ENE 19:12:41 10° NNE
Cosmos 1727 Rocket 4.4 19:08:03 10° N 19:14:06 44° ENE 19:20:03 10° SSE
SL-16 R/B 2.8 19:10:27 10° SSE 19:15:27 34° ESE 19:20:29 10° NE
Cosmos 1378 Rocket 3.8 19:12:13 10° N 19:16:29 49° ENE 19:20:40 10° SSE
Okean O Rocket 3.2 19:15:51 11° ESE 19:18:40 18° ENE 19:21:36 10° NNE
CZ-4 R/B 1.1 19:19:49 10° SSE 19:23:32 68° ENE 19:27:12 10° N
SPOT 5 2.9 19:22:40 10° S 19:27:11 72° WSW 19:31:34 10° NNW
NOSS 3-4 (A) 4.4 19:23:53 10° WSW 19:28:56 44° NW 19:34:30 10° NNE
NOSS 3-4 (C) 4.4 19:24:22 10° WSW 19:29:28 45° NW 19:35:05 10° NNE
Cosmos 1656 Rocket 3.7 19:27:11 10° NNW 19:32:38 64° ENE 19:37:23 14° SE
Cosmos 1025 Rocket 3.4 19:29:08 10° N 19:33:12 42° ENE 19:36:27 15° SE
Helios 1A Rocket 2.1 19:30:48 10° NNE 19:34:01 77° ESE 19:37:12 10° S
CZ-4B R/B 3.9 19:31:23 10° S 19:35:06 71° WSW 19:38:59 10° NNW
PAYLOAD B 4.2 19:29:43 10° SSE 19:35:08 68° ENE 19:40:37 10° N
Cosmos 1733 Rocket 3.3 19:30:57 10° SSW 19:35:19 74° W 19:39:44 10° N
Terra 2.0 19:32:10 12° SSE 19:36:24 54° ENE 19:40:59 10° N
Cosmos 2242 Rocket 3.8 19:32:56 10° NNW 19:37:22 75° W 19:41:45 10° S
BREEZE-M DEB (TANK) 2.9 19:36:28 10° WNW 19:39:04 48° NNE 19:43:55 13° E
IRAS Rocket 4.4 19:34:08 10° S 19:39:36 73° WSW 19:45:05 10° NNW
Resurs 01 Rocket 4.4 19:38:28 10° SW 19:41:14 16° W 19:44:01 10° NW
Cosmos 1821 Rocket 4.1 19:35:34 10° S 19:41:51 85° W 19:48:16 10° N
Cosmos 2237 Rocket 3.5 19:37:55 10° SW 19:43:20 44° WNW 19:48:47 10° NNE
CSL-04 Rocket 4.4 19:42:54 10° S 19:48:20 55° W 19:53:48 10° NNW
Cosmos 2150 Rocket 4.1 19:43:34 10° S 19:48:31 51° ESE 19:53:33 10° NNE
Cosmos 1300 Rocket 4.5 19:48:14 22° ESE 19:49:43 27° E 19:53:21 10° NNE
BREEZE-M DEB (TANK) 3.8 19:50:33 10° WNW 19:52:48 33° N 19:56:59 10° ENE
Cosmos 1346 Rocket 2.4 19:49:23 10° N 19:52:59 73° E 19:55:10 22° SSE
Cosmos 1400 Rocket 3.9 19:53:33 10° SSW 19:56:57 40° WNW 20:00:24 10° N
SL-4 R/B 2.6 19:53:46 10° SSW 19:57:08 30° SE 19:57:34 29° ESE
BREEZE-M DEB (TANK) 3.7 19:53:29 10° SSW 19:57:19 51° SE 20:09:45 10° NE
Cosmos 1812 3.6 19:56:46 10° SW 19:58:04 19° WNW 19:59:24 10° NNW
Meteor 2-16 Rocket 4.4 19:53:01 10° N 19:59:11 80° E 20:04:36 14° SSE
Meteor 1-31 Rocket 4.1 19:56:34 10° SSW 19:59:47 34° W 20:03:02 10° NNW
Cosmos 1602 3.1 19:57:48 10° N 19:59:37 38° NE 19:59:37 38° NE
Cosmos 1000 Rocket 4.4 19:54:02 10° N 20:00:12 76° E 20:05:23 15° SSE
Dummy Sat-02 4.4 19:59:01 17° S 20:01:42 80° E 20:05:18 10° N
ASTEX 1 3.5 19:59:47 22° SSE 20:02:47 55° E 20:07:36 10° N
Gbstr 26 Del rocket 3.8 19:59:17 10° SSW 20:04:12 36° SE 20:06:31 22° E
USA 59 Rocket 1.0 20:01:06 10° NW 20:04:32 38° WSW 20:07:46 16° S
Cosmos 1869 3.3 20:06:01 38° SE 20:06:44 44° E 20:10:08 10° NNE
Cosmos 2297 4.0 20:02:13 10° NNW 20:07:51 52° ENE 20:10:44 27° ESE
Cosmos 1315 Rocket 4.0 20:08:55 24° ENE 20:08:55 24° ENE 20:11:26 10° NE
SPOT 3 Rocket 4.5 20:08:17 25° ESE 20:10:11 32° ENE 20:14:45 10° N
ADEOS 3.6 20:06:33 16° S 20:10:44 79° WSW 20:15:59 10° NNW
Cosmos 2369 Rocket 2.3 20:06:40 10° NNW 20:12:14 62° ENE 20:14:59 30° SE
USA 186 2.5 20:14:08 28° NNE 20:14:08 28° NNE 20:15:33 10° N
SL-08 R/B 3.3 20:10:24 10° NNE 20:15:21 90° S 20:20:14 10° SSW
Lacrosse 5 rocket 3.6 20:16:44 10° N 20:17:33 11° NNE 20:18:22 10° NNE
Cosmos 2285 Rocket 3.9 20:13:06 10° SSW 20:19:28 86° ESE 20:25:50 10° NNE
USA 234 3.2 20:13:39 10° NE 20:20:15 86° SE 20:26:48 10° SW
Cosmos 2221 Rocket 3.5 20:16:02 10° N 20:20:27 87° W 20:22:40 30° S
YAOGAN 11 3.9 20:16:21 10° NNE 20:20:39 71° ESE 20:23:06 25° S
Cosmos 405 Rocket 3.2 20:22:22 10° N 20:24:26 32° NE 20:24:26 32° NE
Cosmos 1943 3.4 20:23:24 25° SSE 20:26:21 47° ESE 20:31:47 10° NE
CZ-4B R/B 3.4 20:27:35 34° ENE 20:27:35 34° ENE 20:30:26 10° N
Molniya-1 3.7 20:25:14 10° SW 20:27:49 59° NW 20:33:04 10° NE
CZ-4B R/B 3.9 20:23:42 14° S 20:28:24 55° W 20:33:58 10° NNW
Cosmos 921 Rocket 4.2 20:25:54 10° N 20:29:42 28° ENE 20:30:06 27° ENE
SL-8 R/B 4.1 20:27:49 10° W 20:32:30 62° NNW 20:36:05 17° ENE
SL-08 R/B 4.5 20:27:51 10° N 20:34:06 84° W 20:37:59 25° S
OAO 2 Rocket 4.4 20:30:31 10° WSW 20:34:48 27° S 20:34:49 27° S
Cosmos 1975 Rocket 3.5 20:31:27 10° N 20:35:41 43° ENE 20:35:59 43° E
Cosmos 1356 Rocket 4.2 20:36:34 34° ENE 20:36:34 34° ENE 20:39:31 10° NNE
ERS-1 Rocket 4.3 20:33:53 11° SSW 20:38:19 35° W 20:42:54 10° NNW
CZ-2C R/B 4.2 20:44:38 19° NNE 20:44:38 19° NNE 20:45:49 10° N
Cosmos 2263 4.1 20:37:43 10° NNW 20:43:24 82° ENE 20:45:15 45° SSE
Okean-O 2.9 20:44:32 39° SSW 20:45:59 61° W 20:50:19 10° NNW
Okean O Rocket 2.3 20:53:05 34° SSW 20:54:29 47° W 20:58:41 10° NNW
CZ-4B R/B 3.2 20:55:25 63° SE 20:56:01 73° ENE 21:00:46 10° N
Ariane Rocket 2.9 20:57:13 58° ESE 20:57:53 65° ENE 21:02:54 10° N
SL-16 R/B 3.5 20:54:10 10° SW 20:59:27 39° NW 21:04:46 10° NNE
Cosmos 1782 Rocket 3.9 20:58:38 43° SW 20:59:50 62° W 21:04:07 10° N
Cosmos 1934 Rocket 4.5 20:54:46 11° SSW 21:00:46 58° WNW 21:06:53 10° N
Spot 2 Rocket 4.5 21:03:19 27° SSW 21:05:28 41° W 21:10:13 10° NNW
USA 245 4.0 21:05:18 56° SSW 21:06:15 72° W 21:11:43 10° NNW
Cosmos 1269 Rocket 3.9 21:04:22 10° NNW 21:09:40 89° WSW 21:10:20 69° SSE
ATLAS 5 CENTAUR R/B 3.1 21:07:14 10° NNW 21:10:44 26° NE 21:11:03 26° NE
Cosmos 1140 Rocket 3.3 21:07:04 10° NNW 21:12:12 78° WSW 21:12:46 69° SSW
Terra 4.2 21:11:12 10° SW 21:14:15 17° W 21:17:18 10° NW
IRS-P2 Rocket 4.4 21:19:05 75° ESE 21:19:27 80° ENE 21:24:41 10° NNW
NOSS 3-1 (C) 4.2 21:12:47 10° NW 21:20:01 65° WSW 21:23:02 42° S
Cosmos 1153 Rocket 4.4 21:22:56 64° SE 21:23:45 72° E 21:30:01 10° NNE
Cosmos 1862 4.4 21:20:31 10° NNW 21:22:56 39° NNW 21:22:56 39° NNW
Cosmos 1447 Rocket 4.4 21:20:20 10° N 21:26:37 88° W 21:27:42 64° S
Cosmos 1459 Rocket 4.5 21:26:51 44° E 21:26:51 44° E 21:32:35 10° NNE
Cosmos 2058 3.7 21:24:35 10° NNW 21:27:31 46° NNW 21:27:31 46° NNW
Meteor 2-17 Rocket 4.3 21:22:44 10° N 21:28:54 74° E 21:29:29 68° SE
Cosmos 407 Rocket 3.5 21:24:04 10° NNW 21:28:57 70° NE 21:28:57 70° NE
Cosmos 371 Rocket 3.6 21:29:03 10° NNW 21:33:16 57° NNE 21:33:16 57° NNE
SL-4 R/B 4.4 21:30:36 10° WSW 21:31:14 14° WSW 21:31:14 14° WSW
ATLAS 2AS CENTAUR R/B 4.3 21:38:07 19° ENE 21:38:07 19° ENE 21:40:30 10° ENE
COSMOS 2455 2.7 21:34:57 10° NNW 21:41:01 86° ENE 21:41:17 81° ESE
SJ 16-02 2.5 21:37:41 10° N 21:40:32 36° NNE 21:40:32 36° NNE
Cosmos 2251 Rocket 4.1 21:38:41 10° N 21:43:27 46° NE 21:43:27 46° NE
Gbstr 26 Del rocket 4.4 21:45:39 10° WSW 21:48:40 33° W 21:48:40 33° W
Lacrosse 5 rocket 3.8 21:52:02 10° NNW 21:52:48 15° NNW 21:52:48 15° NNW
Cosmos 2369 Rocket 4.0 21:51:46 10° NW 21:55:41 20° W 21:56:46 19° WSW
SeaSat 1 3.7 21:56:42 32° NE 21:56:42 32° NE 22:00:44 10° N
USA 234 4.4 21:56:52 10° NE 22:02:53 41° NNW 22:08:53 10° W
Cosmos 2173 Rocket 3.8 22:03:22 84° NNE 22:03:22 84° NNE 22:09:18 10° N
Cosmos 1697 Rocket 4.2 22:00:21 10° N 22:05:00 26° NE 22:05:24 25° ENE
Cosmos 1603 4.0 22:07:59 59° W 22:08:23 61° WNW 22:14:03 10° NNE
Meteor 2-3 Rocket 3.9 22:09:11 10° N 22:14:03 68° NNW 22:14:03 68° NNW
NOSS 3-1 (A) 4.2 22:12:33 10° NW 22:19:51 60° WSW 22:20:42 58° SW
Cosmos 1980 Rocket 4.2 22:21:26 10° N 22:25:25 19° NE 22:26:38 18° ENE
Cosmos 2100 Rocket 4.2 22:26:44 60° W 22:26:53 61° WNW 22:33:01 10° N
Tsikada Rocket 4.3 22:26:38 10° N 22:32:10 59° NE 22:32:10 59° NE
Cosmos 2061 Rocket 4.5 22:35:46 50° NE 22:35:46 50° NE 22:40:43 10° NNE
Cosmos 1656 4.5 22:40:26 10° NNW 22:44:20 45° NW 22:44:20 45° NW
ATLAS 5 CENTAUR R/B 3.8 22:48:41 10° NW 22:50:11 21° NW 22:50:11 21° NW
ATLAS 3B R/B 3.8 22:45:42 10° NNW 22:53:06 43° NE 22:55:41 33° E
Cosmos 1833 Rocket 3.5 23:01:17 44° NNE 23:01:17 44° NNE 23:05:04 10° NNE
Cosmos 2082 Rocket 4.4 23:02:51 14° ENE 23:02:51 14° ENE 23:04:09 10° ENE
ALOS 2 4.5 23:03:31 28° N 23:03:31 28° N 23:05:38 10° NNW
CZ-2C R/B 4.4 23:06:05 10° NNE 23:09:16 33° NE 23:09:16 33° NE
Cosmos 2233 Rocket 4.4 23:18:32 56° NW 23:18:32 56° NW 23:24:06 10° N
USA 229 DEB 4.1 23:12:04 10° NW 23:19:36 70° NE 23:20:33 64° E
USA 229 4.1 23:12:07 10° NW 23:19:39 69° NE 23:20:40 63° E
ATLAS 2AS CENTAUR R/B 2.8 23:25:29 71° NW 23:25:29 71° NW 23:32:13 10° NE
CZ-2C R/B 3.5 23:29:07 45° NNE 23:29:07 45° NNE 23:33:14 10° N
SeaSat 1 4.4 23:36:18 22° NW 23:36:18 22° NW 23:38:14 10° NW
Nadezhda 4 Rocket 4.4 23:37:49 10° N 23:43:04 55° NE 23:43:04 55° NE
ACS3 Solar Sail 3.2 23:40:26 10° NE 23:44:46 26° E 23:44:46 26° E
Cosmos 1697 Rocket 3.9 23:43:48 10° NNW 23:47:06 34° NW 23:47:06 34° NW
Cosmos 1464 Rocket 4.3 23:54:07 62° NNE 23:54:07 62° NNE 23:59:11 10° N
